This is the latest recevied weather packets stored in our database for station/object KF7SOJ. If no packets are shown the sender has not sent any weather packets the latest 10 day(s).
| Time | Temp. | Humidity | Pressure | Rain* | Wind** | Luminosity | Snow |
|---|---|---|---|---|---|---|---|
| 1788401118 | 25° C | 28% | 923.2 hPa | 0 mm | - | 1 W/m² | - |
| 1788400817 | 25° C | 28% | 923.1 hPa | 0 mm | - | 1 W/m² | - |
| 1788400513 | 25° C | 29% | 923 hPa | 0 mm | - | 4 W/m² | - |
| 1788400209 | 25° C | 29% | 923 hPa | 0 mm | - | 4 W/m² | - |
| 1788399908 | 25° C | 29% | 923 hPa | 0 mm | - | 5 W/m² | - |
| 1788399603 | 26.11° C | 27% | 922.6 hPa | 0 mm | - | 12 W/m² | - |
| 1788399302 | 26.11° C | 27% | 923 hPa | 0 mm | - | 12 W/m² | - |
| 1788399002 | 26.11° C | 27% | 923 hPa | 0 mm | - | 12 W/m² | - |
| 1788398701 | 26.67° C | 27% | 922.8 hPa | 0 mm | - | 15 W/m² | - |
| 1788398400 | 27.22° C | 26% | 922.8 hPa | 0 mm | - | 24 W/m² | - |
| 1788398095 | 27.22° C | 26% | 923 hPa | 0 mm | - | 27 W/m² | - |
| 1788397791 | 27.78° C | 26% | 922.9 hPa | 0 mm | - | 31 W/m² | - |
| 1788397491 | 28.33° C | 26% | 922.8 hPa | 0 mm | - | 32 W/m² | - |
| 1788397188 | 28.89° C | 23% | 922.9 hPa | 0 mm | - | 41 W/m² | - |
| 1788396884 | 29.44° C | 24% | 922.7 hPa | 0 mm | - | 58 W/m² | - |
| 1788396581 | 30° C | 22% | 922.8 hPa | 0 mm | - | 65 W/m² | - |
| 1788396275 | 30° C | 26% | 922.7 hPa | 0 mm | - | 132 W/m² | - |
| 1788395971 | 30° C | 26% | 922.6 hPa | 0 mm | - | 132 W/m² | - |
| 1788395670 | 30° C | 26% | 922.7 hPa | 0 mm | - | 142 W/m² | - |
| 1788395366 | 28.89° C | 31% | 922.6 hPa | 0 mm | - | 133 W/m² | - |
| 1788395061 | 28.89° C | 31% | 922.6 hPa | 0 mm | - | 133 W/m² | - |
| 1788394761 | 28.89° C | 31% | 922.5 hPa | 0 mm | - | 133 W/m² | - |
| 1788394461 | 28.89° C | 26% | 922.7 hPa | 0 mm | - | 86 W/m² | - |
| 1788394160 | 28.89° C | 26% | 922.5 hPa | 0 mm | - | 86 W/m² | - |
| 1788393855 | 28.89° C | 28% | 922.5 hPa | 0 mm | - | 93 W/m² | - |
* Rain latest hour (hover to see other rain measurements)
** Current wind speed in m/s (hover to see current wind gust speed)